Schneifelwetter: Wetterstation Hallschlag, 537 m . NN
Wetterdaten: Sonntag, 29.03.2009
Datum Zeit Temp. A. Feuchte A. Luftdruck Regen Wind Richtung Richtung Sonnenschein Helligkeit T Regen Taupunkt Windchill
29.03.2009 00:14 1,7 C 96 % 1002 hPa 0,0 l/m 25,7 km/h (4 Bft) W45 265 0 min 0 lux 0,00 min 1,1 C -9,7 C
29.03.2009 00:30 1,7 C 95 % 1002 hPa 0,0 l/m 31,6 km/h (5 Bft) W-SW67.5 255 0 min 0 lux 0,00 min 1,0 C -11,5 C
29.03.2009 00:45 1,6 C 95 % 1002 hPa 0,0 l/m 29,0 km/h (5 Bft) W22.5 260 0 min 0 lux 0,00 min 0,9 C -10,9 C
29.03.2009 01:00 1,5 C 95 % 1002 hPa 0,0 l/m 25,8 km/h (4 Bft) W-SW45 255 0 min 0 lux 0,00 min 0,8 C -10,0 C
29.03.2009 01:15 1,5 C 95 % 1002 hPa 0,0 l/m 21,5 km/h (4 Bft) W-SW22.5 255 0 min 0 lux 0,00 min 0,8 C -8,3 C
29.03.2009 01:30 1,4 C 94 % 1002 hPa 0,0 l/m 19,4 km/h (3 Bft) W-SW22.5 255 0 min 0 lux 0,00 min 0,5 C -7,6 C
29.03.2009 01:45 1,4 C 94 % 1002 hPa 0,0 l/m 15,9 km/h (3 Bft) W-SW22.5 250 0 min 0 lux 0,00 min 0,5 C -5,8 C
29.03.2009 03:00 1,3 C 95 % 1003 hPa 0,0 l/m 17,7 km/h (3 Bft) W-SW22.5 245 0 min 0 lux 0,00 min 0,6 C -6,9 C
29.03.2009 03:15 1,4 C 95 % 1003 hPa 0,0 l/m 20,4 km/h (4 Bft) W-SW45 245 0 min 0 lux 0,00 min 0,7 C -8,0 C
29.03.2009 03:30 1,4 C 95 % 1003 hPa 0,0 l/m 19,3 km/h (3 Bft) W-SW22.5 250 0 min 0 lux 0,00 min 0,7 C -7,5 C
29.03.2009 03:45 1,4 C 95 % 1003 hPa 0,0 l/m 16,3 km/h (3 Bft) W-SW22.5 245 0 min 0 lux 0,00 min 0,7 C -6,0 C
29.03.2009 04:00 1,3 C 95 % 1003 hPa 0,0 l/m 22,3 km/h (4 Bft) W-SW22.5 250 0 min 0 lux 0,00 min 0,6 C -8,9 C
29.03.2009 04:15 1,3 C 95 % 1003 hPa 0,0 l/m 19,4 km/h (3 Bft) W-SW22.5 245 0 min 0 lux 0,00 min 0,6 C -7,7 C
29.03.2009 04:30 1,2 C 95 % 1003 hPa 0,0 l/m 9,6 km/h (2 Bft) W-SW 255 0 min 0 lux 0,00 min 0,5 C -1,8 C
29.03.2009 04:45 1,1 C 95 % 1003 hPa 0,0 l/m 14,1 km/h (3 Bft) W-SW22.5 245 0 min 0 lux 0,00 min 0,4 C -5,1 C
29.03.2009 05:00 1,0 C 96 % 1003 hPa 0,0 l/m 9,3 km/h (2 Bft) W-SW 250 0 min 0 lux 0,00 min 0,4 C -1,8 C
29.03.2009 05:15 1,0 C 96 % 1003 hPa 0,0 l/m 12,4 km/h (3 Bft) W-SW 240 0 min 0 lux 0,00 min 0,4 C -4,1 C
29.03.2009 05:30 0,9 C 96 % 1003 hPa 0,0 l/m 7,6 km/h (2 Bft) SW 230 0 min 0 lux 0,00 min 0,3 C -0,3 C
29.03.2009 05:45 0,9 C 96 % 1003 hPa 0,0 l/m 11,0 km/h (2 Bft) SW22.5 235 0 min 0 lux 0,00 min 0,3 C -3,2 C
29.03.2009 05:59 0,9 C 96 % 1003 hPa 0,0 l/m 13,5 km/h (3 Bft) W-SW 250 0 min 0 lux 0,00 min 0,3 C -5,0 C
29.03.2009 06:14 0,8 C 96 % 1004 hPa 0,0 l/m 10,2 km/h (2 Bft) W-SW 250 0 min 0 lux 0,00 min 0,2 C -2,7 C
29.03.2009 06:29 0,7 C 96 % 1004 hPa 0,0 l/m 10,8 km/h (2 Bft) W-SW 245 0 min 0 lux 0,00 min 0,1 C -3,3 C
29.03.2009 06:44 0,8 C 97 % 1004 hPa 0,0 l/m 12,2 km/h (2 Bft) W-SW22.5 250 0 min 0 lux 0,00 min 0,4 C -4,2 C
29.03.2009 06:59 0,9 C 97 % 1004 hPa 0,0 l/m 10,4 km/h (2 Bft) W-SW 240 0 min 0 lux 0,00 min 0,5 C -2,8 C
29.03.2009 07:14 0,9 C 97 % 1004 hPa 0,0 l/m 12,4 km/h (3 Bft) W-SW 250 0 min 120 lux 0,00 min 0,5 C -4,2 C
29.03.2009 07:29 1,0 C 97 % 1004 hPa 0,0 l/m 15,8 km/h (3 Bft) W-SW22.5 255 0 min 730 lux 0,00 min 0,6 C -6,2 C
29.03.2009 07:44 1,1 C 97 % 1004 hPa 0,0 l/m 17,6 km/h (3 Bft) W22.5 260 0 min 834 lux 0,00 min 0,7 C -7,1 C
29.03.2009 07:59 1,2 C 97 % 1005 hPa 0,0 l/m 15,4 km/h (3 Bft) W22.5 265 0 min 1,35 klux 0,00 min 0,8 C -5,8 C
29.03.2009 08:14 1,3 C 97 % 1005 hPa 0,0 l/m 18,4 km/h (3 Bft) W22.5 260 0 min 2,71 klux 0,00 min 0,9 C -7,2 C
29.03.2009 08:29 1,5 C 97 % 1005 hPa 0,0 l/m 14,3 km/h (3 Bft) W22.5 260 0 min 6,62 klux 0,00 min 1,1 C -4,8 C
29.03.2009 08:44 1,9 C 97 % 1005 hPa 0,0 l/m 15,8 km/h (3 Bft) W22.5 260 0 min 9,00 klux 0,00 min 1,5 C -5,1 C
29.03.2009 08:59 2,1 C 96 % 1005 hPa 0,0 l/m 11,5 km/h (2 Bft) W-SW 255 0 min 13,1 klux 0,00 min 1,5 C -2,2 C
29.03.2009 09:14 2,7 C 95 % 1005 hPa 0,0 l/m 16,4 km/h (3 Bft) W22.5 260 0 min 37,1 klux 0,00 min 2,0 C -4,5 C
29.03.2009 09:29 2,9 C 94 % 1006 hPa 0,0 l/m 14,2 km/h (3 Bft) W22.5 265 0 min 18,9 klux 0,00 min 2,0 C -3,0 C
29.03.2009 09:45 2,6 C 94 % 1006 hPa 0,0 l/m 11,4 km/h (2 Bft) W22.5 270 0 min 6,92 klux 0,00 min 1,7 C -1,6 C
29.03.2009 10:00 2,7 C 94 % 1006 hPa 0,0 l/m 10,3 km/h (2 Bft) W22.5 260 0 min 14,2 klux 0,00 min 1,8 C -0,7 C
29.03.2009 10:14 2,7 C 93 % 1006 hPa 0,0 l/m 13,8 km/h (3 Bft) W22.5 275 0 min 11,9 klux 0,00 min 1,7 C -3,0 C
29.03.2009 10:29 2,9 C 92 % 1006 hPa 0,0 l/m 13,9 km/h (3 Bft) W-NW22.5 300 0 min 26,7 klux 0,00 min 1,7 C -2,8 C
29.03.2009 10:44 3,3 C 92 % 1006 hPa 0,0 l/m 10,8 km/h (2 Bft) W-NW22.5 285 0 min 21,5 klux 0,00 min 2,1 C -0,4 C
29.03.2009 10:59 3,5 C 91 % 1006 hPa 0,0 l/m 10,5 km/h (2 Bft) W-NW45 285 0 min 21,5 klux 0,00 min 2,2 C 0,1 C
29.03.2009 11:14 3,7 C 91 % 1007 hPa 0,0 l/m 15,3 km/h (3 Bft) NW45 320 0 min 22,7 klux 0,00 min 2,4 C -2,7 C
29.03.2009 11:30 3,9 C 90 % 1007 hPa 0,0 l/m 14,8 km/h (3 Bft) W22.5 275 0 min 24,6 klux 0,00 min 2,4 C -2,1 C
29.03.2009 11:45 3,6 C 89 % 1007 hPa 0,0 l/m 15,0 km/h (3 Bft) N-NO22.5 15 0 min 18,5 klux 0,00 min 2,0 C -2,6 C
29.03.2009 11:59 4,1 C 91 % 1007 hPa 0,0 l/m 13,8 km/h (3 Bft) N22.5 5 0 min 43,2 klux 0,00 min 2,8 C -1,4 C
29.03.2009 12:14 4,8 C 86 % 1007 hPa 0,0 l/m 12,3 km/h (3 Bft) NW45 325 15 min 98,0 klux 0,00 min 2,7 C 0,3 C
29.03.2009 12:29 4,1 C 86 % 1007 hPa 0,0 l/m 21,8 km/h (4 Bft) W-NW45 285 0 min 17,7 klux 0,00 min 2,0 C -5,0 C
29.03.2009 12:44 3,1 C 89 % 1007 hPa 0,0 l/m 15,0 km/h (3 Bft) NW45 325 0 min 17,8 klux 0,00 min 1,5 C -3,2 C
29.03.2009 12:59 3,7 C 91 % 1007 hPa 0,6 l/m 7,3 km/h (2 Bft) W22.5 275 0 min 40,3 klux 15,00 min 2,4 C 2,9 C
29.03.2009 13:15 3,8 C 89 % 1008 hPa 0,0 l/m 18,8 km/h (3 Bft) N-NW22.5 330 0 min 35,3 klux 0,00 min 2,2 C -4,2 C
29.03.2009 13:30 4,2 C 89 % 1008 hPa 0,0 l/m 15,9 km/h (3 Bft) NW67.5 315 0 min 37,8 klux 0,00 min 2,6 C -2,4 C
29.03.2009 13:44 4,6 C 86 % 1008 hPa 0,0 l/m 23,1 km/h (4 Bft) N67.5 355 14 min 54,1 klux 0,00 min 2,5 C -4,8 C
29.03.2009 13:59 4,9 C 84 % 1008 hPa 0,0 l/m 21,8 km/h (4 Bft) N-NW67.5 340 15 min 74,1 klux 0,00 min 2,4 C -4,0 C
29.03.2009 14:14 5,7 C 82 % 1008 hPa 0,0 l/m 14,2 km/h (3 Bft) N45 5 15 min 87,8 klux 0,00 min 2,9 C 0,3 C
29.03.2009 14:29 5,8 C 75 % 1008 hPa 0,0 l/m 21,2 km/h (4 Bft) N67.5 360 15 min 92,3 klux 0,00 min 1,7 C -2,6 C
29.03.2009 14:44 4,9 C 80 % 1008 hPa 0,0 l/m 19,1 km/h (3 Bft) NW67.5 310 0 min 19,7 klux 0,00 min 1,7 C -2,9 C
29.03.2009 14:59 4,5 C 83 % 1008 hPa 0,0 l/m 11,2 km/h (2 Bft) N-NO22.5 15 0 min 23,4 klux 0,00 min 1,9 C 0,7 C
29.03.2009 15:15 4,9 C 83 % 1008 hPa 0,0 l/m 18,3 km/h (3 Bft) N-NO22.5 20 0 min 34,7 klux 0,00 min 2,3 C -2,6 C
29.03.2009 15:29 4,8 C 82 % 1008 hPa 0,0 l/m 17,9 km/h (3 Bft) N45 360 0 min 29,8 klux 0,00 min 2,0 C -2,5 C
29.03.2009 15:44 4,7 C 81 % 1008 hPa 0,0 l/m 20,4 km/h (4 Bft) N22.5 360 0 min 32,1 klux 0,00 min 1,7 C -3,7 C
29.03.2009 15:59 4,8 C 82 % 1008 hPa 0,0 l/m 17,0 km/h (3 Bft) N22.5 350 0 min 27,8 klux 0,00 min 2,0 C -2,1 C
29.03.2009 16:14 5,1 C 81 % 1008 hPa 0,0 l/m 17,7 km/h (3 Bft) NW67.5 305 0 min 25,1 klux 0,00 min 2,1 C -2,1 C
29.03.2009 16:29 4,5 C 79 % 1008 hPa 0,0 l/m 19,2 km/h (3 Bft) N45 355 0 min 15,5 klux 0,00 min 1,2 C -3,5 C
29.03.2009 16:44 3,7 C 84 % 1009 hPa 0,0 l/m 20,0 km/h (4 Bft) N22.5 5 0 min 16,7 klux 0,00 min 1,3 C -4,9 C
29.03.2009 17:00 3,8 C 85 % 1009 hPa 0,0 l/m 9,3 km/h (2 Bft) NO 55 0 min 39,5 klux 0,00 min 1,5 C 1,3 C
29.03.2009 17:15 4,5 C 83 % 1009 hPa 0,0 l/m 14,7 km/h (3 Bft) N45 350 0 min 39,9 klux 0,00 min 1,9 C -1,4 C
29.03.2009 17:29 5,2 C 80 % 1009 hPa 0,0 l/m 13,0 km/h (3 Bft) N45 355 0 min 42,0 klux 0,00 min 2,0 C 0,4 C
29.03.2009 17:44 5,3 C 77 % 1009 hPa 0,0 l/m 10,9 km/h (2 Bft) N67.5 5 0 min 18,2 klux 0,00 min 1,6 C 1,8 C
29.03.2009 17:59 5,2 C 74 % 1009 hPa 0,0 l/m 17,3 km/h (3 Bft) N22.5 10 0 min 16,2 klux 0,00 min 1,0 C -1,8 C
29.03.2009 18:14 4,9 C 74 % 1009 hPa 0,0 l/m 23,2 km/h (4 Bft) N45 360 0 min 13,3 klux 0,00 min 0,7 C -4,5 C
29.03.2009 18:29 4,7 C 79 % 1009 hPa 0,0 l/m 16,6 km/h (3 Bft) N-NO22.5 25 0 min 11,6 klux 0,00 min 1,4 C -2,1 C
29.03.2009 18:45 4,4 C 78 % 1009 hPa 0,0 l/m 17,4 km/h (3 Bft) N-NO67.5 25 0 min 8,61 klux 0,00 min 0,9 C -2,8 C
29.03.2009 19:00 4,2 C 78 % 1009 hPa 0,0 l/m 19,5 km/h (3 Bft) N-NO22.5 20 0 min 5,09 klux 0,00 min 0,7 C -4,0 C
29.03.2009 19:14 3,9 C 78 % 1010 hPa 0,0 l/m 14,4 km/h (3 Bft) N22.5 10 0 min 3,69 klux 0,00 min 0,4 C -1,9 C
29.03.2009 19:29 3,6 C 80 % 1010 hPa 0,0 l/m 10,1 km/h (2 Bft) N 360 0 min 3,52 klux 0,00 min 0,5 C 0,5 C
29.03.2009 19:44 3,3 C 80 % 1010 hPa 0,0 l/m 8,5 km/h (2 Bft) N-NO22.5 15 0 min 2,43 klux 0,00 min 0,2 C 1,4 C
29.03.2009 19:59 3,0 C 81 % 1010 hPa 0,0 l/m 5,3 km/h (1 Bft) N 355 0 min 1,01 klux 0,00 min 0,1 C 3,0 C
29.03.2009 20:14 2,7 C 82 % 1010 hPa 0,0 l/m 6,2 km/h (2 Bft) N 360 0 min 335 lux 0,00 min -0,1 C 2,7 C
29.03.2009 20:30 2,3 C 83 % 1010 hPa 0,0 l/m 6,7 km/h (2 Bft) N 360 0 min 47 lux 0,00 min -0,3 C 2,0 C
29.03.2009 20:45 2,1 C 84 % 1011 hPa 0,0 l/m 4,6 km/h (1 Bft) N 360 0 min 13 lux 0,00 min -0,3 C 2,1 C
29.03.2009 20:59 1,9 C 85 % 1011 hPa 0,0 l/m 0,4 km/h (0 Bft) N 360 0 min 1 lux 0,00 min -0,3 C 1,9 C
29.03.2009 21:14 1,6 C 86 % 1011 hPa 0,0 l/m 7,2 km/h (2 Bft) N 360 0 min 0 lux 0,00 min -0,5 C 0,8 C
29.03.2009 21:29 1,2 C 86 % 1011 hPa 0,0 l/m 3,0 km/h (1 Bft) N 355 0 min 0 lux 0,00 min -0,9 C 1,2 C
29.03.2009 21:44 0,9 C 87 % 1011 hPa 0,0 l/m 3,4 km/h (1 Bft) N 355 0 min 0 lux 0,00 min -1,0 C 0,9 C
29.03.2009 21:59 0,6 C 88 % 1011 hPa 0,0 l/m 0,4 km/h (0 Bft) N 355 0 min 0 lux 0,00 min -1,2 C 0,6 C
29.03.2009 22:15 0,4 C 89 % 1011 hPa 0,0 l/m 0,6 km/h (0 Bft) N 355 0 min 0 lux 0,00 min -1,2 C 0,4 C
29.03.2009 22:30 0,3 C 90 % 1012 hPa 0,0 l/m 0,7 km/h (0 Bft) N 355 0 min 0 lux 0,00 min -1,1 C 0,3 C
29.03.2009 22:44 0,5 C 91 % 1012 hPa 0,0 l/m 9,4 km/h (2 Bft) N22.5 360 0 min 0 lux 0,00 min -0,8 C -2,4 C
29.03.2009 22:59 0,8 C 91 % 1012 hPa 0,0 l/m 7,6 km/h (2 Bft) N22.5 350 0 min 0 lux 0,00 min -0,5 C -0,4 C
29.03.2009 23:14 0,7 C 91 % 1012 hPa 0,0 l/m 7,4 km/h (2 Bft) N 5 0 min 0 lux 0,00 min -0,6 C -0,3 C
29.03.2009 23:29 0,7 C 91 % 1012 hPa 0,0 l/m 7,6 km/h (2 Bft) N67.5 5 0 min 0 lux 0,00 min -0,6 C -0,5 C
29.03.2009 23:44 0,6 C 91 % 1013 hPa 0,0 l/m 0,0 km/h (0 Bft) N-NW 335 0 min 0 lux 0,00 min -0,7 C 0,6 C
29.03.2009 23:59 0,4 C 91 % 1013 hPa 0,0 l/m 4,5 km/h (1 Bft) N-NW 335 0 min 0 lux 0,00 min -0,9 C 0,4 C
_ Min-Zeit 22:30 17:59 00:14 - 23:44 - - - - - 22:15 00:30
Minimum _ 0,3 C 74 % 1002 hPa - 0,0 km/h (0 Bft) - - - - - -1,2 C -11,5 C
_ Max-Zeit 14:29 06:44 23:44 12:59 00:30 - - 12:14 12:14 12:59 14:14 19:59
Maximum _ 5,8 C 97 % 1013 hPa 0,6 l/m 31,6 km/h
W-SW (5 Bft)
- - 15 min 98,0 klux 15,00 min 2,9 C 3,0 C
Durchschnitt _ 2,6 C 89 % 1007 hPa #0,6 l/m 13,8 km/h (3 Bft) N - #1:14 h 14,0 klux #15 min. 0,9 C -2,8 C